Temperature
23 23 22 21 20 21 24 25 25 26 26 26 26 26 24 23 23 23 23 23 23 22 21 21 21 21 21 21 21 21 20 20 20 20 20 20 20 20 20 20 20 20 20 20 20 20 20 20 20
24 23 23 21 22 23 25 26 26 27 26 26 26 25 24 23 23 23 23 23 22 22 21 21 21 21 21 21 21 20 20 20 20 20 20 20 20 20 20 20 20 20 20 20 20 20 20 20 20
24 24 23 21 22 23 25 26 26 27 27 26 25 24 23 24 24 24 24 23 22 22 21 21 21 21 21 21 21 20 20 20 20 20 20 20 20 20 20 20 20 20 20 19 19 20 20 20 20
25 24 24 22 25 24 24 26 26 27 27 26 25 23 23 23 24 24 23 23 22 22 22 21 21 21 21 21 20 20 20 20 20 20 20 20 20 20 20 20 20 20 19 19 19 19 19 19 19
25 25 22 22 24 25 25 26 27 27 27 26 25 23 23 23 23 23 23 23 22 22 22 21 21 21 21 21 20 20 20 20 20 20 20 20 20 20 20 20 20 20 20 20 19 19 19 19 19
26 22 21 23 24 26 27 28 27 27 26 26 24 23 23 23 23 23 23 22 22 22 22 21 21 21 21 21 20 20 20 20 20 20 20 20 20 20 19 19 19 19 20 19 19 19 19 19 19
24 20 23 24 24 26 28 28 28 27 26 26 25 22 23 23 23 23 22 22 22 21 21 21 21 21 21 21 20 20 20 20 20 20 20 20 20 19 19 19 19 19 19 19 19 19 19 19 19
25 20 24 23 25 26 28 28 28 27 26 26 26 23 23 23 23 22 22 22 22 21 21 21 21 20 20 20 20 20 20 19 19 20 20 20 20 20 20 19 19 19 19 19 19 19 19 19 19
25 21 22 24 25 27 28 28 28 28 27 26 25 25 25 23 22 22 22 21 21 21 21 21 20 20 20 20 20 19 19 19 19 19 19 19 20 20 20 20 19 19 19 19 19 19 18 18 18
24 21 24 25 26 27 27 28 28 27 26 25 24 25 25 23 22 22 22 22 21 21 21 21 21 21 20 20 20 19 19 19 19 19 19 19 19 19 19 19 19 19 19 19 19 18 18 18 18
24 23 24 25 27 27 27 28 28 26 25 26 25 25 24 23 22 22 22 22 22 21 21 21 21 21 21 20 20 20 20 19 19 19 19 19 19 19 19 19 19 19 19 19 18 18 18 18 18
24 24 25 26 28 27 28 28 28 27 28 28 28 28 26 24 23 23 23 22 22 21 21 21 21 20 20 20 20 20 20 20 20 20 20 19 19 19 19 19 19 19 18 18 18 18 18 18 18
24 24 26 27 27 27 27 28 28 28 28 28 27 26 26 25 24 24 23 22 22 22 21 21 20 20 20 20 20 20 20 20 20 20 19 19 19 19 19 18 18 18 18 18 18 18 18 18 18
24 25 25 26 26 27 27 27 27 27 27 26 26 25 25 24 24 23 22 22 22 22 21 21 21 20 20 20 20 20 20 19 19 19 19 18 18 18 18 18 18 18 18 18 18 18 18 18 18
24 23 24 25 25 26 27 26 25 26 25 24 23 23 23 23 23 23 23 22 22 22 21 21 20 20 20 19 19 19 19 19 18 18 18 18 18 18 18 18 18 18 18 18 18 18 18 18 18
23 23 23 23 23 24 26 25 24 24 23 22 22 22 22 22 22 22 22 22 22 22 21 21 20 20 19 19 19 19 19 18 18 18 18 18 18 18 18 18 18 18 18 18 18 18 18 18 18
21 22 23 23 23 23 24 23 22 22 22 21 22 22 22 22 21 22 22 22 22 21 21 20 20 19 19 19 19 18 18 18 18 17 17 17 17 17 17 17 17 17 17 17 17 17 18 18 18
23 23 23 23 23 22 22 21 21 22 22 21 21 21 21 21 21 21 22 22 21 21 20 20 20 19 19 19 19 18 18 18 18 18 18 17 17 17 17 17 17 16 16 17 17 17 17 17 17
23 23 23 24 24 22 21 21 21 21 21 20 20 19 19 20 20 21 22 22 22 21 21 20 20 20 19 19 19 19 19 18 18 18 17 17 17 17 17 16 16 16 16 16 16 16 17 17 17
23 23 23 24 23 23 22 21 21 20 20 20 19 18 19 20 21 22 22 22 22 22 21 21 21 20 20 20 19 19 18 18 18 17 17 16 16 16 16 16 16 16 16 16 16 16 16 16 16
23 23 24 24 23 21 22 21 20 20 19 19 19 19 19 21 22 22 22 22 22 22 22 22 21 21 20 20 19 19 18 18 17 17 16 16 16 16 16 16 16 16 16 16 16 16 16 16 16
23 24 23 23 21 20 21 19 20 19 18 18 18 19 20 21 22 22 22 22 22 22 22 21 21 20 20 19 19 18 18 17 17 16 16 15 15 15 15 15 16 16 16 16 16 16 15 15 15
24 22 22 21 20 19 19 19 18 18 18 18 18 19 20 21 22 22 23 23 22 22 21 21 21 20 20 19 19 18 18 17 16 16 15 15 15 15 15 15 15 15 15 15 15 15 15 15 15
23 20 18 16 16 18 20 18 18 17 18 18 18 19 21 22 22 23 23 22 22 21 21 21 20 20 20 19 18 18 17 16 16 15 15 15 15 15 15 14 14 14 14 14 14 14 14 14 15
21 19 17 17 16 17 18 18 17 18 18 18 19 20 22 22 22 23 23 22 22 21 21 21 20 20 19 19 18 17 16 16 15 15 15 14 14 14 14 14 14 13 13 13 13 14 14 14 14
21 19 18 18 17 16 17 17 18 19 20 20 21 21 21 21 21 22 22 22 22 21 21 21 20 20 20 19 18 17 16 15 15 15 14 14 14 13 13 13 13 13 13 13 13 13 14 14 14
20 19 17 16 16 16 16 17 18 20 20 20 20 20 20 20 20 21 21 21 21 22 22 21 21 20 20 19 18 17 16 15 15 14 14 14 13 13 13 13 13 13 13 13 13 13 14 14 14
20 17 15 16 17 16 17 18 18 18 18 17 17 17 18 18 19 19 20 21 21 21 21 21 20 20 19 18 18 17 16 15 15 14 14 14 13 13 13 13 13 13 13 13 13 13 13 13 13
20 19 15 14 15 15 16 16 16 15 14 14 14 14 14 15 16 17 18 19 19 20 20 19 19 19 18 18 17 16 16 15 15 15 14 14 13 13 13 12 12 13 13 13 13 13 13 13 13
20 19 16 17 16 14 14 15 15 13 12 13 12 12 13 13 14 15 16 16 17 17 18 18 18 18 17 17 17 16 16 15 15 15 14 14 13 13 13 12 12 12 12 12 13 13 13 13 13
Wind_Speed
4 5 4 3 3 5 3 3 3 3 2 3 3 6 7 5 4 3 2 9 14 13 16 21 21 20 19 18 17 17 17 17 16 15 14 13 12 11 11 10 9 9 8 8 8 8 8 7 7
2 4 3 3 4 4 3 3 3 2 4 4 5 5 5 3 2 5 5 8 15 14 15 17 20 19 18 18 17 18 18 17 16 15 13 12 11 11 10 9 9 7 6 6 6 6 6 6 6
3 3 4 4 4 3 2 3 3 1 2 2 4 5 4 2 4 7 6 11 12 11 14 18 20 18 18 18 18 18 18 17 17 15 14 12 11 10 9 9 8 7 6 5 5 4 4 5 5
2 3 4 5 2 3 4 4 1 2 1 3 4 5 4 3 6 7 12 14 14 11 13 18 21 19 18 17 17 17 16 15 15 14 13 12 10 9 9 8 8 7 6 6 5 5 5 5 5
3 5 6 4 4 5 5 4 3 3 1 2 4 5 3 5 7 12 15 14 14 11 11 16 21 19 17 16 16 15 15 14 12 12 11 10 9 9 9 9 9 8 8 8 7 8 7 7 7
5 5 6 3 7 6 5 3 3 2 2 3 4 5 2 3 6 11 12 12 10 11 10 13 20 19 17 16 15 14 14 13 12 11 10 10 9 9 9 10 10 10 10 10 10 10 10 10 10
4 4 2 2 5 6 5 1 4 3 2 4 5 6 1 3 5 10 10 10 10 10 8 9 14 16 16 15 14 13 13 12 12 11 11 10 10 9 10 10 11 11 12 12 12 13 13 12 12
5 4 2 1 3 5 6 3 1 5 2 3 4 6 5 6 9 10 10 9 9 10 8 5 8 11 12 13 14 13 13 12 12 12 12 11 11 11 11 12 12 13 13 14 14 15 15 14 13
4 4 1 4 4 5 5 4 2 3 5 3 2 3 5 16 14 12 11 8 8 10 7 6 6 7 9 10 12 14 14 14 13 13 13 13 11 11 10 12 13 14 15 15 16 17 17 16 14
4 3 6 5 5 3 5 4 2 4 4 2 4 6 15 18 15 14 13 11 11 12 11 8 9 8 9 11 11 11 11 12 13 12 12 11 11 11 12 12 15 15 16 17 18 19 18 17 13
4 6 5 6 5 4 4 3 0 7 5 8 8 14 18 17 14 13 13 12 12 12 12 11 10 8 9 7 8 8 9 10 12 13 13 11 10 10 11 10 12 13 15 14 16 17 15 15 13
3 7 6 7 4 2 3 2 2 6 7 5 12 20 19 18 16 15 14 12 9 10 12 11 10 8 7 7 6 6 6 7 8 11 12 10 7 7 8 9 10 11 11 11 12 11 13 14 15
4 6 6 8 9 5 4 4 4 5 2 9 16 17 17 16 13 10 9 9 9 10 11 9 9 10 8 7 5 5 6 7 8 9 10 11 8 8 8 9 10 11 12 10 9 10 10 10 12
4 6 8 9 6 4 5 3 4 5 7 12 14 13 11 11 10 8 8 8 9 10 10 8 9 9 8 8 8 6 6 7 8 10 13 14 13 9 9 9 7 9 12 13 11 8 10 10 8
4 6 8 6 6 5 3 4 4 4 10 12 10 8 8 6 7 7 8 9 9 9 8 7 7 7 7 7 6 4 5 6 6 9 13 15 14 12 9 9 9 9 12 13 11 11 9 9 8
3 4 5 8 8 6 4 8 3 5 10 10 9 8 7 5 5 5 6 6 7 6 6 6 7 7 8 7 7 5 6 7 7 9 11 14 15 15 9 9 10 10 11 9 9 9 9 9 9
6 4 4 8 7 4 3 4 2 7 9 9 8 7 7 6 6 6 6 6 6 7 7 6 6 7 8 8 6 5 4 5 6 6 7 9 10 12 8 8 9 9 8 8 9 9 8 9 10
3 2 3 6 8 6 5 3 4 5 7 7 7 6 7 7 5 4 5 5 6 6 6 6 5 5 5 4 4 3 4 4 4 4 5 6 6 7 6 6 8 7 7 7 8 10 9 8 8
2 2 3 4 5 5 6 4 2 2 4 7 7 6 6 5 3 2 4 5 5 5 6 6 6 5 4 2 2 2 3 3 3 3 4 5 6 7 5 5 6 6 6 8 9 8 9 8 5
3 2 1 3 5 3 3 3 4 3 3 4 7 8 8 6 4 5 5 5 5 5 6 6 6 5 5 3 2 2 2 2 3 3 4 5 6 6 5 6 7 7 7 8 9 8 6 5 5
2 3 2 2 4 5 2 4 4 4 3 3 7 7 8 9 9 8 7 7 6 7 8 6 7 6 4 3 1 0 1 2 2 3 3 3 5 6 5 7 8 8 8 8 9 9 9 8 7
2 4 2 1 2 4 4 4 5 3 2 3 6 7 8 9 9 9 9 9 9 9 6 6 5 4 3 3 3 3 2 3 3 2 4 6 6 6 7 7 8 9 8 9 10 10 9 9 8
4 3 3 1 2 1 3 1 8 3 4 6 7 8 10 11 11 11 11 10 8 5 4 4 3 3 3 3 4 4 4 3 2 3 5 6 7 8 8 8 9 9 9 10 11 10 10 9 10
4 6 6 6 5 1 0 2 7 5 7 6 8 10 12 12 11 10 8 5 5 4 4 4 4 5 4 5 5 6 6 4 3 4 5 5 6 7 8 9 9 9 9 10 11 11 12 11 12
6 7 6 7 6 4 4 3 9 8 8 8 10 13 13 10 8 8 8 7 7 7 6 6 6 6 5 5 6 6 6 5 4 4 4 5 5 6 8 9 9 9 9 10 10 10 11 11 12
3 8 6 3 5 6 5 5 8 7 6 7 8 7 5 5 5 7 8 8 9 9 8 7 8 7 6 6 6 5 6 4 4 5 4 5 5 7 9 10 10 10 10 9 8 8 9 9 10
4 3 6 6 2 3 6 7 9 6 6 4 2 1 3 4 5 7 8 8 8 8 7 7 8 7 7 7 6 6 6 6 6 5 5 5 5 6 8 10 10 10 9 9 7 6 7 7 8
3 8 6 5 3 4 6 5 5 8 10 9 4 3 6 8 9 10 9 9 8 6 5 4 4 5 5 6 7 6 8 8 7 5 6 5 5 5 8 10 10 10 9 8 6 6 5 5 5
3 4 5 4 4 5 5 7 3 7 8 5 7 9 10 11 11 12 12 12 11 10 8 6 5 5 5 6 7 8 8 8 7 6 7 5 5 5 7 8 9 9 9 8 6 5 4 2 2
2 4 6 1 4 5 4 8 4 6 8 9 10 10 10 11 12 12 13 14 14 13 11 10 8 7 7 6 7 9 9 8 8 8 8 6 5 5 5 6 7 8 8 8 7 5 4 2 1
Wind_Direction
194 171 142 130 82 51 35 327 267 305 18 12 88 107 114 128 177 209 81 131 133 145 159 163 161 159 155 153 150 146 144 144 143 142 142 143 144 144 142 140 141 142 140 136 134 132 130 129 129
199 150 129 104 81 67 325 297 293 265 157 147 83 79 77 79 66 114 127 138 141 147 156 160 162 160 159 158 157 155 154 152 151 150 149 148 148 149 150 150 150 153 153 152 151 149 146 146 148
219 146 109 83 80 150 252 291 290 13 152 142 86 71 88 144 143 154 154 140 138 146 155 162 165 165 165 166 165 164 163 160 158 157 157 158 159 160 162 163 164 169 174 177 177 176 174 173 176
122 60 58 67 51 227 230 264 293 156 197 63 101 87 63 49 153 149 139 141 143 149 156 167 169 172 173 174 173 172 170 168 166 165 166 168 172 177 178 178 181 187 196 205 211 215 218 219 218
65 72 54 39 316 271 239 232 201 211 196 82 106 108 71 14 100 127 139 145 150 154 157 171 172 176 179 180 180 180 178 176 176 176 178 181 187 194 197 197 199 203 210 219 227 233 237 242 245
45 58 63 4 317 296 277 205 145 178 128 119 117 109 63 82 114 137 140 142 148 157 157 174 176 180 183 185 188 188 186 186 186 188 192 198 204 212 216 215 216 219 222 227 234 239 244 248 251
87 77 94 310 310 317 316 255 149 147 174 184 141 117 107 141 134 131 126 125 138 155 154 174 179 185 189 192 196 199 198 197 197 199 205 212 218 225 231 230 230 233 236 239 242 246 249 251 251
113 94 67 306 287 302 312 330 147 151 181 115 121 143 192 179 136 122 113 114 137 156 156 157 171 184 193 200 206 210 212 212 212 213 217 223 228 233 238 237 236 242 247 251 254 255 257 255 252
87 76 221 222 206 283 316 336 342 133 122 118 133 150 159 134 132 127 122 121 148 166 163 159 164 178 187 197 211 216 218 220 223 225 228 231 235 241 246 247 244 248 255 260 262 262 263 262 259
94 149 230 218 198 243 293 280 231 126 132 132 76 78 124 137 145 148 153 160 170 181 184 179 180 182 186 198 205 212 215 218 221 222 229 235 234 238 246 250 252 254 258 263 265 265 266 265 259
170 208 245 257 227 232 255 278 268 144 196 204 172 147 146 153 158 163 169 174 183 186 190 194 194 190 189 193 192 202 210 216 220 220 221 227 236 243 250 251 254 257 262 264 265 263 258 254 250
218 257 252 274 284 264 233 229 193 201 232 200 157 153 156 166 173 177 179 184 182 185 199 199 196 195 198 199 200 204 209 217 222 223 221 221 231 241 246 248 249 249 252 255 258 259 256 255 252
240 271 279 272 292 259 239 215 221 240 224 124 139 153 164 173 180 184 184 183 183 196 207 205 199 202 201 203 210 213 219 225 230 231 228 224 230 241 242 245 245 246 247 248 252 253 252 252 253
256 272 285 285 276 254 213 221 194 235 143 135 148 159 163 171 173 172 177 186 194 206 211 206 203 207 205 213 220 224 227 231 234 237 237 232 233 238 239 242 242 245 245 246 249 250 254 254 251
296 307 320 327 330 287 212 277 229 202 144 137 141 140 137 148 159 173 183 192 201 210 214 209 209 207 209 221 234 234 233 234 236 244 246 244 241 243 244 244 244 244 246 246 247 248 246 250 251
25 24 345 315 329 311 187 246 291 131 132 129 132 134 126 111 113 129 152 167 183 192 196 203 211 203 210 214 220 227 232 236 245 250 253 253 251 250 250 251 251 249 246 244 248 248 244 243 241
26 25 332 313 329 342 154 247 14 107 121 127 135 137 124 101 84 93 120 139 154 165 166 170 188 198 209 214 216 222 234 241 250 258 261 265 266 263 251 255 261 261 255 249 247 246 238 242 242
309 341 320 315 329 27 55 38 67 84 126 140 143 132 116 105 98 104 116 133 140 147 152 158 171 188 193 194 201 214 234 242 240 242 253 267 276 282 272 264 268 269 265 259 249 248 240 239 240
226 221 253 284 329 50 56 59 43 19 166 169 156 129 124 124 132 154 155 149 140 147 158 169 179 184 169 165 188 213 246 257 267 266 273 288 294 296 287 279 278 270 260 258 253 249 247 244 227
179 153 261 296 349 66 66 17 337 351 259 203 161 153 155 154 178 197 192 191 189 187 190 196 202 203 199 187 187 198 227 266 285 300 306 305 306 304 301 289 285 277 266 261 256 244 243 237 201
139 168 209 280 347 27 69 349 316 328 5 115 146 160 173 181 190 204 208 215 215 216 213 209 215 218 218 205 164 52 358 334 321 319 315 313 313 305 296 293 289 284 273 265 256 243 237 241 221
233 234 225 205 50 316 26 293 276 289 312 169 167 178 195 203 209 214 215 219 222 227 229 231 233 236 233 196 196 207 227 261 267 284 293 307 313 313 308 299 295 288 280 270 263 252 240 237 235
203 68 63 49 161 33 30 186 286 302 255 225 205 205 215 218 216 219 220 222 230 240 246 245 246 256 247 213 203 204 218 228 257 278 296 306 314 314 310 306 302 295 286 276 269 261 247 237 234
98 68 50 46 64 78 231 195 280 251 227 226 219 221 224 227 227 234 241 248 265 262 246 231 225 240 228 208 198 196 206 217 251 286 302 309 312 308 307 311 305 298 290 281 272 263 253 243 238
70 70 18 358 5 265 278 235 253 258 239 219 213 223 231 235 242 258 271 274 271 264 246 225 217 231 222 206 201 198 197 198 222 258 285 303 310 310 312 316 311 304 294 285 275 265 257 247 241
170 134 154 220 246 282 315 247 258 259 267 238 228 236 256 281 290 290 285 277 269 259 241 219 217 226 217 209 208 200 194 197 218 236 253 275 288 296 304 312 312 309 305 298 282 270 262 252 245
141 153 159 141 187 273 288 290 302 313 314 308 274 315 350 347 334 316 308 297 284 275 252 221 216 224 219 213 208 207 206 210 223 236 246 262 276 294 308 315 317 316 313 308 299 280 270 256 246
118 137 99 124 177 257 286 282 264 309 309 313 335 40 36 25 14 2 353 346 339 330 319 306 271 250 234 220 215 216 217 218 223 232 248 261 279 296 314 321 323 324 327 325 312 295 278 260 250
17 74 90 112 159 181 253 266 263 290 305 338 35 48 40 31 21 15 11 8 6 3 356 341 324 300 276 248 232 228 229 225 225 233 247 257 276 298 315 321 323 328 336 341 335 321 305 280 275
221 147 143 133 269 197 217 265 347 19 30 55 54 43 33 27 19 15 11 9 9 6 359 350 336 313 285 263 247 240 236 229 230 236 243 248 266 288 307 319 326 334 341 348 351 350 353 3 37
Height
1502 1502 1502 1504 1506 1512 1511 1503 1498 1494 1492 1491 1491 1492 1494 1497 1501 1505 1500 1500 1505 1509 1513 1517 1520 1524 1527 1530 1532 1535 1537 1539 1541 1543 1544 1546 1547 1548 1549 1551 1551 1552 1553 1553 1554 1554 1555 1556 1556
1502 1501 1503 1503 1509 1523 1514 1500 1497 1493 1492 1492 1493 1494 1495 1497 1497 1498 1498 1502 1507 1511 1515 1518 1522 1525 1528 1531 1534 1535 1537 1539 1541 1543 1545 1546 1548 1549 1550 1551 1552 1553 1554 1554 1555 1556 1556 1557 1557
1501 1501 1502 1503 1512 1519 1511 1499 1496 1493 1493 1493 1494 1495 1496 1498 1498 1499 1501 1504 1509 1513 1517 1520 1523 1526 1529 1531 1534 1536 1538 1540 1542 1543 1545 1547 1548 1549 1550 1551 1552 1553 1554 1555 1556 1556 1557 1558 1558
1501 1501 1502 1507 1511 1507 1503 1497 1495 1494 1494 1493 1494 1496 1497 1500 1501 1502 1504 1507 1511 1514 1518 1521 1524 1527 1529 1532 1535 1537 1540 1542 1543 1545 1546 1547 1548 1549 1550 1551 1552 1553 1554 1555 1555 1556 1557 1558 1558
1501 1500 1507 1515 1510 1502 1496 1494 1495 1495 1494 1494 1494 1496 1498 1501 1502 1504 1507 1510 1513 1515 1519 1522 1525 1528 1530 1533 1536 1538 1541 1543 1544 1546 1547 1548 1548 1549 1550 1550 1551 1552 1553 1554 1555 1555 1556 1557 1557
1501 1502 1518 1521 1511 1500 1493 1492 1494 1494 1494 1495 1495 1497 1499 1501 1503 1506 1509 1512 1514 1517 1520 1523 1526 1529 1531 1534 1536 1539 1541 1543 1544 1546 1547 1548 1548 1549 1549 1550 1550 1551 1552 1553 1554 1554 1555 1555 1556
1503 1509 1517 1515 1513 1503 1494 1492 1493 1494 1495 1496 1496 1497 1499 1501 1504 1507 1510 1512 1515 1518 1521 1523 1526 1529 1532 1534 1536 1538 1541 1543 1544 1545 1546 1547 1548 1548 1549 1549 1550 1550 1551 1551 1552 1553 1553 1554 1554
1503 1509 1514 1516 1512 1505 1495 1492 1492 1494 1495 1497 1497 1497 1499 1501 1503 1507 1510 1512 1515 1518 1521 1523 1526 1529 1531 1534 1536 1538 1540 1541 1543 1544 1545 1546 1547 1547 1548 1548 1549 1549 1550 1550 1550 1551 1551 1552 1552
1504 1514 1519 1512 1509 1503 1496 1494 1493 1493 1495 1496 1497 1498 1499 1501 1503 1506 1509 1512 1515 1517 1520 1523 1526 1528 1531 1533 1535 1536 1538 1540 1541 1542 1543 1544 1545 1546 1546 1547 1548 1548 1548 1548 1548 1548 1549 1549 1549
1505 1516 1510 1502 1501 1499 1497 1495 1493 1494 1495 1496 1496 1497 1499 1500 1503 1505 1508 1511 1514 1516 1519 1522 1525 1527 1530 1531 1533 1534 1536 1537 1538 1540 1541 1542 1543 1544 1544 1545 1545 1546 1546 1546 1546 1546 1546 1546 1545
1504 1507 1501 1497 1497 1497 1496 1494 1493 1493 1495 1493 1493 1495 1497 1500 1503 1505 1508 1511 1513 1516 1518 1520 1523 1525 1527 1528 1530 1532 1533 1534 1536 1537 1538 1539 1540 1541 1542 1542 1543 1543 1543 1543 1544 1544 1543 1543 1543
1504 1500 1498 1494 1493 1494 1494 1493 1492 1492 1491 1490 1491 1493 1496 1498 1501 1504 1507 1510 1513 1515 1518 1520 1522 1523 1525 1526 1527 1529 1531 1532 1533 1534 1535 1536 1537 1538 1539 1539 1539 1540 1540 1540 1541 1541 1540 1540 1540
1503 1499 1495 1493 1491 1490 1491 1491 1491 1489 1489 1490 1491 1494 1496 1498 1502 1505 1509 1512 1514 1517 1519 1520 1522 1523 1524 1525 1526 1527 1528 1529 1530 1531 1532 1533 1534 1534 1535 1535 1535 1536 1536 1536 1537 1537 1537 1537 1536
1501 1498 1495 1492 1490 1489 1489 1489 1489 1487 1488 1489 1492 1495 1498 1501 1503 1506 1509 1512 1515 1517 1519 1521 1521 1523 1523 1524 1525 1525 1526 1527 1527 1528 1529 1530 1530 1530 1530 1531 1531 1531 1531 1531 1532 1532 1532 1532 1532
1500 1499 1495 1491 1490 1488 1488 1489 1487 1485 1487 1489 1493 1497 1500 1502 1505 1507 1509 1512 1515 1517 1518 1520 1521 1522 1522 1522 1523 1523 1524 1524 1525 1525 1526 1526 1526 1526 1525 1525 1525 1525 1525 1525 1525 1525 1525 1525 1525
1500 1504 1506 1496 1491 1488 1492 1496 1486 1486 1488 1491 1495 1498 1501 1503 1505 1507 1510 1512 1514 1515 1517 1518 1520 1520 1521 1521 1521 1521 1521 1521 1522 1522 1522 1521 1521 1521 1520 1520 1519 1519 1519 1519 1518 1518 1518 1518 1518
1509 1514 1511 1503 1492 1489 1492 1495 1489 1488 1490 1493 1495 1498 1501 1503 1505 1508 1510 1512 1513 1514 1516 1517 1518 1519 1519 1519 1519 1518 1518 1518 1518 1518 1517 1517 1516 1515 1514 1512 1512 1512 1511 1510 1510 1510 1510 1510 1511
1514 1513 1511 1507 1496 1493 1496 1497 1493 1492 1492 1494 1496 1499 1501 1504 1506 1508 1510 1511 1513 1513 1514 1515 1516 1517 1517 1517 1516 1516 1516 1516 1515 1515 1514 1513 1511 1510 1508 1507 1506 1505 1504 1503 1503 1503 1503 1503 1503
1507 1510 1511 1504 1497 1498 1500 1499 1496 1495 1495 1495 1496 1500 1503 1505 1507 1508 1510 1511 1512 1513 1513 1514 1515 1515 1515 1515 1514 1514 1514 1513 1512 1511 1510 1508 1507 1505 1503 1501 1500 1499 1497 1497 1496 1496 1495 1495 1496
1506 1509 1509 1503 1498 1499 1502 1502 1498 1496 1496 1496 1498 1500 1502 1505 1507 1508 1510 1511 1511 1512 1512 1513 1513 1514 1514 1514 1513 1512 1512 1510 1509 1508 1506 1504 1502 1500 1498 1496 1494 1493 1491 1490 1489 1489 1488 1488 1489
1506 1508 1507 1506 1502 1502 1503 1509 1503 1498 1497 1496 1498 1500 1502 1504 1506 1507 1508 1509 1510 1510 1511 1512 1512 1512 1512 1512 1511 1510 1508 1507 1506 1504 1502 1500 1497 1494 1492 1489 1487 1485 1484 1482 1481 1481 1481 1480 1481
1508 1501 1502 1505 1511 1517 1512 1525 1509 1503 1500 1498 1499 1500 1502 1503 1504 1505 1506 1507 1508 1509 1510 1510 1510 1511 1510 1509 1508 1507 1505 1503 1502 1499 1497 1494 1491 1488 1485 1482 1480 1477 1475 1473 1472 1472 1472 1472 1473
1501 1499 1503 1508 1511 1519 1518 1525 1518 1504 1503 1500 1499 1499 1500 1500 1501 1502 1503 1504 1506 1507 1508 1508 1508 1508 1508 1506 1505 1503 1501 1500 1498 1495 1492 1489 1486 1483 1479 1475 1472 1469 1466 1464 1463 1463 1463 1464 1464
1498 1505 1512 1519 1524 1532 1520 1527 1523 1508 1500 1497 1496 1496 1496 1497 1498 1500 1501 1503 1504 1504 1505 1505 1505 1505 1504 1503 1501 1499 1497 1496 1494 1491 1487 1484 1480 1477 1473 1468 1465 1462 1459 1456 1455 1454 1454 1455 1456
1503 1518 1538 1540 1545 1539 1524 1526 1521 1498 1493 1492 1492 1492 1492 1494 1496 1498 1499 1500 1501 1501 1501 1501 1501 1501 1501 1499 1497 1495 1493 1491 1489 1486 1483 1479 1475 1472 1468 1464 1460 1456 1453 1451 1448 1447 1447 1448 1448
1504 1515 1538 1547 1550 1540 1526 1526 1509 1492 1489 1489 1489 1490 1492 1494 1495 1496 1496 1497 1497 1497 1497 1497 1497 1497 1497 1495 1493 1491 1489 1487 1485 1482 1479 1475 1472 1468 1464 1461 1457 1453 1449 1446 1444 1442 1441 1441 1441
1507 1514 1516 1533 1537 1543 1534 1519 1502 1489 1488 1488 1489 1491 1493 1494 1494 1494 1494 1493 1493 1493 1493 1493 1494 1494 1493 1491 1489 1487 1485 1483 1481 1478 1475 1472 1469 1465 1462 1458 1455 1451 1447 1443 1440 1438 1437 1436 1436
1503 1512 1524 1533 1542 1546 1534 1524 1516 1500 1495 1492 1491 1492 1493 1493 1493 1492 1491 1490 1490 1490 1490 1490 1490 1490 1489 1487 1485 1483 1481 1479 1477 1474 1472 1469 1466 1463 1460 1457 1453 1449 1445 1441 1438 1435 1434 1432 1431
1507 1513 1524 1533 1535 1543 1544 1530 1508 1506 1501 1498 1497 1497 1496 1495 1493 1491 1490 1489 1488 1487 1487 1487 1486 1486 1485 1483 1481 1479 1477 1475 1473 1471 1468 1466 1463 1460 1457 1455 1451 1448 1443 1439 1436 1433 1431 1430 1428
1505 1509 1520 1529 1531 1537 1541 1529 1507 1506 1504 1502 1503 1502 1500 1497 1495 1492 1491 1489 1487 1486 1485 1484 1483 1482 1480 1479 1477 1475 1473 1471 1469 1467 1465 1463 1460 1458 1455 1453 1450 1447 1443 1439 1435 1432 1430 1429 1427